Fortuna, CA

6:47 AM PST on February 12, 2016 (GMT -0800)
Rohnerville

Weather History for KFOT - July, 2013

Change the Weather History Date:

Thursday, July 4, 2013

  Actual Average (KEKA) Record (KEKA)
Temperature  
Mean Temperature 58 °F 57 °F  
Max Temperature 64 °F 63 °F 76 °F (1931)
Min Temperature 53 °F 51 °F 46 °F (1921)
Degree Days  
Heating Degree Days 6 8  
Month to date heating degree days 32  
Since 1 June heating degree days 298  
Since 1 July heating degree days 32  
Cooling Degree Days 0 0  
Month to date cooling degree days 0  
Year to date cooling degree days 0  
Since 1 June cooling degree days 0  
Growing Degree Days 8 (Base 50)    
Moisture  
Dew Point 52 °F    
Average Humidity 78    
Maximum Humidity 94    
Minimum Humidity 64    
Precipitation  
Precipitation 0.00 in 0.01 in 0.41 in (1909)
Month to date precipitation 0.03  
Year to date precipitation 23.31  
Snow  
Snow 0.00 in 0.00 in 0.00 in (2002)
Month to date snowfall 0.0  
Since 1 June snowfall 0.0  
Since 1 July snowfall 0.0  
Snow Depth -    
Sea Level Pressure  
Sea Level Pressure 30.00 in    
Wind  
Wind Speed - (North)    
Max Wind Speed -    
Max Gust Speed -    
Visibility 9 miles    
Events      
T = Trace of Precipitation, MM = Missing Value Source: NWS Daily Summary

Daily Weather History Graph

Daily Weather History Graph

Search for Another Location

Airport or City:

Trip Planner

Search our weather history database for the weather conditions in past years. The results will help you decide how hot, cold, wet, or windy it might be!

Date:

Astronomy

Jul. 04, 2013 Rise Set
Actual Time 5:51 AM PDT 8:50 PM PDT
Civil Twilight 5:18 AM PDT 9:23 PM PDT
Nautical Twilight 4:36 AM PDT 10:05 PM PDT
Astronomical Twilight 3:47 AM PDT 10:53 PM PDT
Moon 3:12 AM PDT (7/4) 5:59 PM PDT (7/4)
Length of Visible Light 16h 04m
Length of Day
14h 58m
Waning Crescent, 11% of the Moon is Illuminated
Jul 4
Waning Crescent
Jul 8
New
Jul 15
First Quarter
Jul 22
Full
Jul 29
Last Quarter

Hourly Weather History & Observations

Time (PDT) Temp. Dew Point Humidity Pressure Visibility Wind Dir Wind Speed Gust Speed Precip Events Conditions
12:15 AM 55.4 °F 51.8 °F 88% 30.00 in 8.0 mi North - - N/A   Overcast
12:35 AM 55.4 °F 51.8 °F 88% 30.00 in 8.0 mi North - - N/A   Overcast
12:55 AM 53.6 °F 51.8 °F 94% 29.99 in 7.0 mi North - - N/A   Partly Cloudy
1:10 AM 53.6 °F 51.8 °F 94% 29.99 in 7.0 mi North - - N/A   Clear
10:35 AM 59.0 °F 51.8 °F 77% 30.02 in 9.0 mi North - - N/A   Mostly Cloudy
10:55 AM 60.8 °F 53.6 °F 77% 30.02 in 9.0 mi North - - N/A   Scattered Clouds
11:15 AM 60.8 °F 53.6 °F 77% 30.02 in 9.0 mi North - - N/A   Clear
11:35 AM 60.8 °F 53.6 °F 77% 30.02 in 10.0 mi North - - N/A   Clear
11:55 AM 62.6 °F 53.6 °F 72% 30.02 in 9.0 mi North - - N/A   Clear
12:15 PM 62.6 °F 53.6 °F 72% 30.01 in 9.0 mi North - - N/A   Clear
12:35 PM 62.6 °F 53.6 °F 72% 30.01 in 10.0 mi North - - N/A   Clear
12:55 PM 62.6 °F 53.6 °F 72% 30.02 in 10.0 mi North - - N/A   Clear
1:15 PM 62.6 °F 53.6 °F 72% 30.02 in 9.0 mi North - - N/A   Clear
1:35 PM 62.6 °F 53.6 °F 72% 30.02 in 10.0 mi North - - N/A   Clear
1:55 PM 64.4 °F 53.6 °F 68% 30.02 in 10.0 mi North - - N/A   Clear
2:15 PM 64.4 °F 53.6 °F 68% 30.02 in 10.0 mi North - - N/A   Clear
2:35 PM 64.4 °F 53.6 °F 68% 30.01 in 10.0 mi North - - N/A   Clear
2:55 PM 64.4 °F 51.8 °F 64% 30.00 in 10.0 mi North - - N/A   Clear
3:15 PM 64.4 °F 51.8 °F 64% 30.01 in 10.0 mi North - - N/A   Clear
3:35 PM 62.6 °F 51.8 °F 68% 30.01 in 10.0 mi North - - N/A   Clear
3:55 PM 64.4 °F 53.6 °F 68% 30.01 in 10.0 mi North - - N/A   Clear
4:15 PM 62.6 °F 53.6 °F 72% 30.01 in 10.0 mi North - - N/A   Clear
4:35 PM 62.6 °F 53.6 °F 72% 30.01 in 10.0 mi North - - N/A   Clear
4:55 PM 62.6 °F 53.6 °F 72% 30.00 in 10.0 mi North - - N/A   Clear
5:15 PM 62.6 °F 53.6 °F 72% 30.00 in 10.0 mi North - - N/A   Clear
5:35 PM 62.6 °F 51.8 °F 68% 30.00 in 10.0 mi North - - N/A   Clear
5:55 PM 62.6 °F 51.8 °F 68% 29.99 in 10.0 mi North - - N/A   Clear
6:15 PM 60.8 °F 51.8 °F 72% 30.00 in 10.0 mi North - - N/A   Clear
6:35 PM 60.8 °F 51.8 °F 72% 30.00 in 10.0 mi North - - N/A   Partly Cloudy
6:55 PM 59.0 °F 51.8 °F 77% 29.99 in 10.0 mi North - - N/A   Scattered Clouds
7:15 PM 59.0 °F 51.8 °F 77% 29.99 in 9.0 mi North - - N/A   Mostly Cloudy
7:35 PM 59.0 °F 51.8 °F 77% 29.99 in 10.0 mi North - - N/A   Mostly Cloudy
7:55 PM 57.2 °F 51.8 °F 82% 29.99 in 9.0 mi North - - N/A   Mostly Cloudy
8:15 PM 57.2 °F 50.0 °F 77% 29.99 in 9.0 mi North - - N/A   Mostly Cloudy
8:35 PM 55.4 °F 51.8 °F 88% 29.99 in 9.0 mi North - - N/A   Overcast
8:55 PM 55.4 °F 51.8 °F 88% 29.99 in 8.0 mi North - - N/A   Overcast
9:15 PM 55.4 °F 51.8 °F 88% 29.99 in 10.0 mi North - - N/A   Overcast
9:35 PM 55.4 °F 51.8 °F 88% 29.98 in 9.0 mi North - - N/A   Overcast
9:55 PM 55.4 °F 51.8 °F 88% 29.99 in 9.0 mi North - - N/A   Overcast
10:15 PM 55.4 °F 51.8 °F 88% 29.99 in 9.0 mi North - - N/A   Overcast
10:35 PM 55.4 °F 51.8 °F 88% 29.98 in 10.0 mi North - - N/A   Overcast
10:55 PM 55.4 °F 51.8 °F 88% 29.97 in 8.0 mi North - - N/A   Overcast
11:15 PM 55.4 °F 51.8 °F 88% 29.96 in 8.0 mi North - - N/A   Overcast
11:35 PM 55.4 °F 51.8 °F 88% 29.96 in 7.0 mi North - - N/A   Overcast
11:55 PM 55.4 °F 51.8 °F 88% 29.95 in 7.0 mi North - - N/A   Overcast